Location: Unspecified
(51.5147°N, 7.4673°E)
Time: 04:06:38
(UTC+01:00)

Explorer 7 - Pass Details

Date: 22 February 2026
Orbit: 430 x 542 km, 50.2° (Epoch: 5 March)

Event Time Altitude Azimuth Distance (km) Brightness Sun altitude
Rises 14:08:14 0° 221° (SW) 2,402 11.3 25.8°
Reaches altitude 10° 14:10:31 10° 208° (SSW) 1,548 11.0 25.6°
Maximum altitude 14:13:29 26° 150° (SSE) 911 8.7 25.4°
Drops below altitude 10° 14:16:31 10° 92° (E) 1,594 9.0 25.2°
Sets 14:18:55 0° 80° (E) 2,492 9.8 25.1°
